Weather in Sofiyevskiy Gorodok

Russia / Stavropol Krai     45°41′38″N   42°22′49″E
temp.,
°C
wind,
m/s
gust,
m/s
humid.,
%
clouds,
%
prec.,
mm/h
press.,
hPa
HPBL,
m
11 may, tue
tue1100:00+8wsw111763100 0.0 1015953
03:00+8wsw101760100 0.1 10141246
06:00+8ssw112069100 0.6 10131390
09:00+8ssw112079100 3.1 10151402
12:00+11s91475100 1.3 10161487
15:00+12sse71067100 1.6 10171013
18:00+12sse2274100 0.2 101731
21:00+9n4692100 0.8 1017159
12 may, wed
wed1200:00+9ene3589100 0.0 101797
03:00+8e128169 0.0 101721
06:00+8nne1184100 0.0 101864
09:00+14e246927 0.0 1018832
12:00+18e455751 0.1 10161537
15:00+20ese465387 0.1 10161764
18:00+19ene46675 0.0 1015211
21:00+13ese49830 0.0 1015130
13 may, thu
thu1300:00+12ese348871 0.0 101458
03:00+12e35920 0.0 101383
06:00+13ese36880 0.0 1014140
09:00+19se57620 0.0 1014584
12:00+23ese56520 0.0 1014929
15:00+25ese56506 0.0 10131095
18:00+23e476755 0.0 1013179
21:00+17ese45743 0.0 101463
14 may, fri
fri1400:00+16ese467737 0.0 101389
03:00+14ese4774100 0.0 1013108
06:00+14ese49835 0.0 1013161
09:00+21ese576519 0.0 1013459
12:00+25ese565419 0.0 1012808
15:00+28ese45505 0.0 10111077
18:00+25se37650 0.0 1011158
21:00+20se46720 0.0 101171
15 may, sat
sat1500:00+18ese612632 0.0 1011207
03:00+15ese410685 0.0 1011159
06:00+15se35715 0.0 101296
09:00+22s22625 0.0 1012383
12:00+27nw33595 0.0 1012984
15:00+28nw455770 0.0 10121448
18:00+26wnw47735 0.0 1012297
21:00+20w369416 0.3 1013117